[[{"header":{"parameterUnit":"m.s-1","parameterCategory":1,"la1":30.2991,"la2":30.254,"lo1":-89.0895,"lo2":-89.0444,"dy":0.0017,"dx":0.0017,"nx":28,"ny":28,"refTime":"2024-10-02T09:00:00:Z","depth":0,"parameterNumber":2,"parameterNumberName":"U-component_of_WINDS"},"data":[0,0,0,0,0,0,0,0,0,0,0,0,0,0,0,0,0,0,0,0,0,0,0,0,0,0,0,0,0,0,0,0,0,0,0,0,0,0,0,0,0,0,0,0,0,0,0,0,0,0,0,0,0,0,0,0,0,0,-4.7294,-4.7294,0,-4.7356,-4.7356,-4.7357,-4.7268,-4.7265,-4.7262,-4.7259,-4.7321,-4.7325,-4.7329,0,0,0,0,0,0,0,0,0,0,0,0,0,-4.7096,-4.71,-4.7294,-4.7294,-4.7295,-4.7356,-4.7357,-4.7357,-4.7269,-4.7265,-4.7261,-4.7258,-4.7319,-4.7324,-4.733,0,0,0,0,0,0,0,0,0,0,0,0,0,-4.7172,-4.7101,-4.7293,-4.7258,-4.7256,-4.7356,-4.7357,-4.7358,-4.727,-4.7265,-4.726,-4.7256,-4.7317,-4.7324,-4.7331,-4.7467,0,0,-4.7352,-4.7355,0,0,0,0,0,0,0,0,-4.7168,-4.7179,-4.7263,-4.7261,-4.7258,-4.7299,-4.7309,-4.7394,-4.7271,-4.7264,-4.7259,-4.7253,-4.7317,-4.7324,-4.7346,-4.747,-4.7473,-4.7352,-4.7356,-4.7359,-4.7361,0,0,0,0,0,0,0,-4.7163,-4.7176,-4.7318,-4.7264,-4.7261,-4.7239,-4.7244,-4.7325,-4.7316,-4.7264,-4.7258,-4.7267,-4.7315,-4.7339,-4.7346,-4.7473,-4.7352,-4.7358,-4.7362,-4.7365,-4.771,-4.7715,0,0,0,0,0,0,-4.7162,-4.7172,-4.7316,-4.732,-4.7201,-4.7246,-4.7252,-4.7291,-4.7315,-4.7314,-4.7271,-4.7263,-4.733,-4.7339,-4.7348,-4.7507,-4.7359,-4.7366,-4.737,-4.7705,-4.7711,-4.7717,0,0,0,0,0,0,-4.7158,-4.7176,-4.7314,-4.7245,-4.726,-4.7254,-4.7299,-4.7295,-4.7319,-4.732,-4.7318,-4.7297,-4.7327,-4.7339,-4.7438,-4.7508,-4.7369,-4.7375,-4.7699,-4.7707,-4.7714,-4.7827,0,0,0,0,0,0,-4.7153,-4.7175,-4.7227,-4.7246,-4.7264,-4.7403,-4.7303,-4.7299,-4.7331,-4.7321,-4.7344,-4.7344,-4.7324,-4.7428,-4.7445,-4.7515,-4.738,-4.7693,-4.7703,-4.7712,-4.7817,-4.7837,-4.7855,0,0,0,0,0,-4.7146,-4.7256,-4.723,-4.7248,-4.733,-4.7407,-4.7417,-4.7393,-4.7337,-4.7389,-4.739,-4.7343,-4.7499,-4.7439,-4.7457,-4.753,-4.7688,-4.77,-4.7711,-4.7808,-4.7833,-4.7855,0,0,0,0,0,0,-4.7244,-4.7258,-4.7229,-4.7349,-4.7378,-4.7392,-4.7456,-4.7421,-4.7465,-4.7453,-4.7421,-4.7427,-4.7532,-4.7542,-4.7475,-4.7662,-4.7584,-4.7599,-4.7652,-4.7676,-4.7694,-4.7688,-4.7386,0,0,0,0,0,-4.728,-4.7343,-4.7351,-4.7457,-4.7473,-4.7463,-4.7495,-4.7474,-4.7502,-4.7513,-4.7521,-4.755,-4.7604,-4.7641,-4.7692,-4.7819,-4.7821,-4.7878,-4.7898,-4.7913,-4.7926,-4.7991,-4.8015,-4.7754,-4.7754,-4.7754,0,0,-4.7355,-4.737,-4.7411,-4.7477,-4.7496,-4.756,-4.7473,-4.7545,-4.7592,-4.7524,-4.7617,-4.7625,-4.7654,-4.7767,-4.7817,-4.7778,-4.7999,-4.7928,-4.794,-4.7944,-4.8005,-4.803,-4.8052,-4.7762,-4.7761,-4.7759,0,0,-4.7521,-4.7541,-4.7629,-4.7651,-4.7682,-4.7675,-4.7696,-4.7716,-4.7718,-4.7812,-4.7762,-4.7817,-4.7914,-4.7935,-4.7959,-4.8136,-4.8093,-4.8154,-4.8252,-4.8316,-4.8336,-4.8354,-4.8414,-4.8436,-4.8167,-4.8168,-4.8168,0,-4.7609,-4.7704,-4.7679,-4.7754,-4.7783,-4.7727,-4.7815,-4.7837,-4.7883,-4.7904,-4.786,-4.7979,-4.7995,-4.811,-4.8154,-4.8176,-4.8198,-4.8149,-4.8336,-4.8354,-4.837,-4.8426,-4.8449,-4.8174,-4.8174,-4.8173,-4.8172,0,-4.7809,-4.7876,-4.7944,-4.799,-4.8027,-4.8109,-4.8094,-4.8135,-4.8112,-4.8109,-4.8204,-4.8222,-4.8274,-4.8301,-4.8279,-4.8414,-4.8388,-4.8341,-4.8261,-4.8402,-4.8454,-4.8476,-4.8184,-4.8182,-4.818,-4.8178,0,0,-4.8037,-4.8069,-4.8093,-4.8112,-4.8143,-4.8194,-4.8273,-4.8325,-4.8359,-4.8394,-4.8457,-4.854,-4.8496,-4.8523,-4.8503,-4.856,-4.8695,-4.8506,-4.8506,-4.8537,-4.8841,-4.8873,-4.8899,-4.8669,-4.8673,-4.8676,-4.8838,0,-4.82,-4.8336,-4.8316,-4.8446,-4.8506,-4.8454,-4.8522,-4.8548,-4.8548,-4.8599,-4.8599,-4.8656,-4.8596,-4.8612,-4.8666,-4.8667,-4.8755,-4.8656,-4.8725,-4.8727,-4.8715,-4.8927,-4.8961,-4.9112,-4.8858,-4.8862,-4.8864,0,-4.8409,-4.845,-4.8587,-4.8607,-4.8631,-4.8693,-4.8738,-4.8788,-4.8816,-4.8812,-4.8843,-4.8813,-4.889,-4.8812,-4.8917,-4.885,-4.8877,-4.8882,-4.8888,-4.8889,-4.8801,-4.8931,-4.916,-4.9181,-4.8897,-4.8894,-4.8892,0,-4.8556,-4.8647,-4.8739,-4.8758,-4.8785,-4.8829,-4.8842,-4.8866,-4.8898,-4.8938,-4.8958,-4.9007,-4.9032,-4.9071,-4.9054,-4.8999,-4.9161,-4.9082,-4.9157,-4.9157,-4.9189,-4.9187,-4.9422,-4.9215,-4.9215,-4.9214,-4.9214,0,-4.8738,-4.8822,-4.8806,-4.8862,-4.8955,-4.8932,-4.9024,-4.9031,-4.9052,-4.9108,-4.9068,-4.9121,-4.9098,-4.9149,-4.9137,-4.9224,-4.9237,-4.9234,-4.9229,-4.9235,-4.9235,-4.9249,-4.9237,-4.922,-4.9219,-4.9218,-4.9217,0,-4.8916,-4.8909,-4.9006,-4.9024,-4.903,-4.9098,-4.9112,-4.9165,-4.9163,-4.9234,-4.9249,-4.9246,-4.9304,-4.9293,-4.9357,-4.9349,-4.9457,-4.9441,-4.9447,-4.9441,-4.9515,-4.9507,-4.9765,-4.9796,-4.9573,-4.9575,-4.9577,0,-4.903,-4.9094,-4.9119,-4.9154,-4.9171,-4.9228,-4.926,-4.924,-4.9276,-4.9312,-4.936,-4.9415,-4.9458,-4.9554,-4.9556,-4.9605,-4.9587,-4.9675,-4.9594,-4.9598,-4.9584,-4.9578,-4.9583,-4.9689,-4.9691,-4.9694,-4.9695,0,-4.9233,-4.9226,-4.9275,-4.9323,-4.9363,-4.94,-4.9433,-4.9463,-4.9446,-4.9488,-4.9547,-4.9581,-4.9647,-4.9701,-4.9747,-4.9759,-4.9724,-4.9722,-4.974,-4.9745,-4.9744,-4.9742,-4.9486,-4.9714,-4.9712,-4.9711,-4.971,-4.9709,-4.9379,-4.9433,-4.9458,-4.9514,-4.9537,-4.9568,-4.9618,-4.9622,-4.9672,-4.9724,-4.971,-4.9777,-4.9803,-4.986,-4.9878,-4.993,-4.9897,-4.9926,-4.9932,-4.9938,-4.9945,-4.974,-4.9939,-4.9938,-4.9937,-4.9937,-4.9937,0,-4.9576,-4.959,-4.9642,-4.9689,-4.9732,-4.9698,-4.9733,-4.977,-4.983,-4.9858,-4.9901,-4.9969,-5.0021,-5.0029,-5.0079,-5.0118,-5.0103,-5.0131,-5.0126,-5.0129,-4.9974,-4.995,-5.0143,-5.0143,-5.0143,-5.0143,-5.0142,-5.0142,-4.9683,-4.977,-4.9767,-4.9865,-4.9879,-4.9944,-4.9966,-4.9995,-5.0016,-5.0094,-5.0138,-5.0143,-5.0162,-5.0213,-5.0259,-5.026,-5.0278,-5.0312,-5.0306,-5.0161,-5.014,-5.012,-5.0098,-5.0318,-5.0318,-5.0456,-5.0457,-5.0458]},{"header":{"parameterUnit":"m.s-1","parameterCategory":1,"la1":30.2991,"la2":30.254,"lo1":-89.0895,"lo2":-89.0444,"dy":0.0017,"dx":0.0017,"nx":28,"ny":28,"refTime":"2024-10-02T09:00:00:Z","depth":0,"parameterNumber":3,"parameterNumberName":"V-component_of_WINDS"},"data":[0,0,0,0,0,0,0,0,0,0,0,0,0,0,0,0,0,0,0,0,0,0,0,0,0,0,0,0,0,0,0,0,0,0,0,0,0,0,0,0,0,0,0,0,0,0,0,0,0,0,0,0,0,0,0,0,0,0,0.876,0.8759,0,0.8724,0.8724,0.8724,0.8664,0.8663,0.8662,0.8661,0.8625,0.8625,0.8625,0,0,0,0,0,0,0,0,0,0,0,0,0,0.8776,0.8776,0.876,0.8759,0.8759,0.8725,0.8724,0.8724,0.8665,0.8663,0.8662,0.8661,0.8625,0.8625,0.8625,0,0,0,0,0,0,0,0,0,0,0,0,0,0.8758,0.8776,0.876,0.8725,0.8722,0.8725,0.8724,0.8723,0.8665,0.8663,0.8662,0.866,0.8625,0.8625,0.8625,0.8658,0,0,0.8625,0.8625,0,0,0,0,0,0,0,0,0.8759,0.8757,0.8731,0.8728,0.8724,0.8697,0.8716,0.8702,0.8665,0.8686,0.8661,0.8659,0.865,0.8648,0.8645,0.8656,0.8655,0.8625,0.8625,0.8625,0.8625,0,0,0,0,0,0,0,0.876,0.8758,0.8746,0.873,0.8726,0.8712,0.8707,0.8713,0.8678,0.8684,0.868,0.8677,0.8648,0.8645,0.8644,0.8654,0.8625,0.8625,0.8625,0.8625,0.8693,0.8695,0,0,0,0,0,0,0.8767,0.876,0.8747,0.8745,0.8738,0.8713,0.8708,0.8707,0.8678,0.8672,0.8678,0.8674,0.8646,0.8644,0.8642,0.868,0.8625,0.8625,0.8625,0.8691,0.8694,0.8696,0,0,0,0,0,0,0.8767,0.8766,0.8748,0.8751,0.8748,0.8714,0.8714,0.8707,0.8705,0.8673,0.8666,0.8682,0.8644,0.8642,0.8655,0.8678,0.8625,0.8625,0.8689,0.8692,0.8695,0.8756,0,0,0,0,0,0,0.8768,0.8767,0.8779,0.8752,0.8748,0.8762,0.8716,0.8708,0.8705,0.8699,0.8675,0.8669,0.8643,0.8655,0.8655,0.8677,0.8625,0.8687,0.8691,0.8694,0.8752,0.876,0.8768,0,0,0,0,0,0.8769,0.8797,0.878,0.8778,0.8762,0.8763,0.8761,0.873,0.8707,0.8719,0.8699,0.867,0.8676,0.8657,0.8656,0.8679,0.8686,0.869,0.8693,0.8748,0.8759,0.8768,0,0,0,0,0,0,0.8827,0.8793,0.8773,0.8793,0.8782,0.8753,0.8767,0.8742,0.8737,0.8731,0.8694,0.8689,0.8707,0.8694,0.8674,0.871,0.8676,0.868,0.8718,0.8728,0.8736,0.8738,0.8625,0,0,0,0,0,0.8842,0.8846,0.8816,0.8837,0.8832,0.8801,0.88,0.8778,0.8764,0.8759,0.8739,0.8727,0.8726,0.8726,0.8724,0.875,0.8744,0.8765,0.8773,0.878,0.8784,0.8798,0.8807,0.8709,0.8708,0.8708,0,0,0.8873,0.8855,0.886,0.8848,0.8836,0.8841,0.8797,0.8803,0.8807,0.8759,0.8771,0.8757,0.874,0.8761,0.8768,0.875,0.881,0.8785,0.8791,0.8791,0.8803,0.8812,0.8821,0.8711,0.8711,0.871,0,0,0.8933,0.892,0.8936,0.8925,0.8908,0.8888,0.8892,0.8868,0.8857,0.8868,0.8833,0.8836,0.8835,0.8826,0.882,0.8879,0.8852,0.8879,0.8921,0.8935,0.8943,0.8949,0.8971,0.8979,0.8883,0.8883,0.8883,0,0.8974,0.898,0.8947,0.8957,0.8953,0.8911,0.8928,0.8919,0.8902,0.8901,0.8881,0.888,0.8866,0.8884,0.8899,0.8896,0.89,0.8881,0.8944,0.8951,0.8956,0.8976,0.8984,0.8887,0.8886,0.8886,0.8886,0,0.9031,0.9036,0.9051,0.9037,0.9035,0.9047,0.9018,0.902,0.8998,0.898,0.8993,0.8975,0.8969,0.8971,0.895,0.8987,0.8976,0.8951,0.8916,0.897,0.8988,0.8995,0.8892,0.889,0.8889,0.8888,0,0,0.9125,0.9094,0.91,0.9093,0.9072,0.9075,0.9087,0.9081,0.9084,0.9074,0.9083,0.9085,0.9062,0.9056,0.9034,0.9046,0.9095,0.902,0.9019,0.9034,0.9135,0.9154,0.9163,0.9077,0.9078,0.9079,0.9136,0,0.918,0.9198,0.917,0.9194,0.9199,0.916,0.917,0.9159,0.9143,0.9145,0.9127,0.9129,0.9098,0.9094,0.9105,0.9087,0.9114,0.9082,0.9085,0.9086,0.909,0.9172,0.9192,0.9246,0.9143,0.9144,0.9145,0,0.9246,0.9241,0.9266,0.9245,0.9245,0.9255,0.9248,0.925,0.9237,0.9225,0.922,0.9193,0.9204,0.9171,0.9185,0.9164,0.9164,0.9155,0.9156,0.9155,0.9118,0.9173,0.9263,0.9271,0.9156,0.9155,0.9154,0,0.9313,0.9311,0.9326,0.9322,0.9297,0.9305,0.9296,0.9281,0.928,0.9274,0.9273,0.9269,0.9266,0.9264,0.9238,0.9216,0.9256,0.922,0.9246,0.9247,0.9255,0.9255,0.9346,0.9256,0.9256,0.9256,0.9255,0,0.9377,0.9394,0.9356,0.9365,0.9383,0.9352,0.9371,0.9357,0.9345,0.9351,0.9318,0.9324,0.9289,0.9293,0.9272,0.9288,0.9287,0.9277,0.9272,0.928,0.9281,0.9279,0.9275,0.9258,0.9257,0.9257,0.9256,0,0.9453,0.9429,0.9443,0.9419,0.9414,0.9428,0.9408,0.9416,0.9398,0.9407,0.9407,0.938,0.9382,0.9356,0.9353,0.9339,0.9364,0.9352,0.9368,0.9364,0.9392,0.939,0.9485,0.9496,0.9399,0.94,0.9401,0,0.9496,0.9508,0.9486,0.9488,0.948,0.9484,0.9483,0.9453,0.9453,0.944,0.945,0.945,0.9448,0.9453,0.9433,0.9431,0.9418,0.9452,0.9418,0.9426,0.9419,0.9419,0.942,0.9459,0.946,0.9461,0.9462,0,0.9574,0.9562,0.9561,0.9558,0.9557,0.9553,0.9546,0.955,0.9517,0.9519,0.9521,0.952,0.9518,0.9518,0.9512,0.9503,0.9477,0.9473,0.9479,0.9487,0.9497,0.9492,0.9388,0.947,0.947,0.9469,0.9468,0.9468,0.9635,0.9644,0.9631,0.9632,0.9624,0.9619,0.9626,0.9609,0.9611,0.9606,0.9589,0.9594,0.9582,0.9572,0.9565,0.9569,0.9553,0.9562,0.9564,0.9566,0.9571,0.9497,0.9568,0.9568,0.9568,0.9567,0.9567,0,0.9712,0.9701,0.9703,0.9695,0.9696,0.9673,0.9664,0.9667,0.9672,0.9663,0.9663,0.9666,0.9666,0.9647,0.9645,0.9653,0.9641,0.9653,0.9652,0.9651,0.9586,0.9581,0.9663,0.9663,0.9663,0.9663,0.9663,0.9663,0.9751,0.9767,0.9753,0.9764,0.9754,0.9759,0.9756,0.9752,0.9745,0.975,0.975,0.9738,0.9725,0.9722,0.9722,0.9717,0.9718,0.9734,0.9724,0.9664,0.9655,0.9646,0.9641,0.9734,0.9735,0.9789,0.9789,0.979]}]]